FW8448 Weather Reports


Display with metric or nautical units.
time (UTC)temp
F
wind
direction
speed
MPH
gust
MPH
rain 1hr
in
rain 24hr
in
rain mn
in
humidity
%
barometer
mb
20260503213056 60 226 4.0 16.0 0.00 0.00 0.00 52 1012.7
20260503211606 59 192 2.0 8.0 0.00 0.00 0.00 58 1012.9
20260503210054 59 215 3.0 13.0 0.00 0.00 0.00 55 1013.1
20260503204551 56 101 1.0 6.0 0.00 0.00 0.00 62 1013.3
20260503203053 55 0 2.0 7.0 0.00 0.00 0.00 65 1013.6
20260503201552 52 86 2.0 6.0 0.00 0.00 0.00 67 1014.2
20260503200101 51 0 0.0 2.0 0.00 0.00 0.00 71 1014.5
20260503194602 52 0 0.0 3.0 0.00 0.00 0.00 70 1015.8
20260503193101 52 0 0.0 17.0 0.00 0.00 0.00 65 1015.6
20260503191555 54 275 4.0 13.0 0.00 0.00 0.00 60 1016.0
20260503190053 56 261 5.0 20.0 0.00 0.00 0.00 51 1015.6
20260503184601 57 234 4.0 12.0 0.00 0.00 0.00 49 1015.6
20260503183100 58 213 5.0 13.0 0.00 0.00 0.00 49 1015.9
20260503181610 59 242 3.0 11.0 0.00 0.00 0.00 48 1016.0
20260503180112 60 234 5.0 17.0 0.00 0.00 0.00 49 1016.2
20260503174556 60 277 7.0 22.0 0.00 0.00 0.00 44 1016.3
20260503173104 60 221 6.0 20.0 0.00 0.00 0.00 46 1016.4
20260503171555 59 238 8.0 16.0 0.00 0.00 0.00 47 1016.4
20260503150103 53 240 10.0 19.0 0.00 0.00 0.00 61 1018.2
20260503081549 31 0 0.0 0.0 0.00 0.00 0.00 92 1017.5
20260503071600 31 0 0.0 0.0 0.00 0.00 0.00 92 1017.4
20260503054550 32 0 0.0 0.0 0.00 0.00 0.00 91 1018.1
20260503053050 32 0 0.0 0.0 0.00 0.00 0.00 91 1018.1
20260503051550 32 0 0.0 0.0 0.00 0.00 0.00 90 1018.2
20260503050056 32 0 0.0 0.0 0.00 0.00 0.00 90 1018.0
20260503044559 33 0 0.0 0.0 0.00 0.00 0.00 89 1018.0
20260503043054 33 0 0.0 1.0 0.00 0.00 0.00 89 1018.0
20260503041547 34 0 0.0 0.0 0.00 0.00 0.00 89 1018.0
20260503034557 34 0 0.0 0.0 0.00 0.00 0.00 87 1018.0
20260503033053 34 0 0.0 0.0 0.00 0.00 0.00 86 1018.1
20260503031550 35 0 0.0 0.0 0.00 0.00 0.00 86 1018.2
20260503030118 35 0 0.0 0.0 0.00 0.00 0.00 85 1018.2
20260503024549 36 0 0.0 0.0 0.00 0.00 0.00 82 1018.2
20260503023048 37 0 0.0 0.0 0.00 0.00 0.00 81 1018.2
20260503021552 37 0 0.0 0.0 0.00 0.00 0.00 80 1018.2
20260503020046 38 0 0.0 1.0 0.00 0.00 0.00 79 1018.2
20260503014604 38 0 0.0 0.0 0.00 0.00 0.00 76 1018.1
20260503013053 39 0 0.0 0.0 0.00 0.00 0.00 75 1018.0
20260503011558 41 0 0.0 1.0 0.00 0.00 0.00 74 1017.8
20260503010106 42 0 0.0 1.0 0.00 0.00 0.00 72 1017.8
20260503004554 44 0 0.0 0.0 0.00 0.00 0.00 68 1017.6
20260503003118 47 0 0.0 0.0 0.00 0.00 0.00 62 1017.6
20260503001549 49 0 0.0 0.0 0.00 0.00 0.00 59 1017.4
20260503000055 50 0 0.0 2.0 0.00 0.00 0.00 55 1017.2
20260502234548 50 0 0.0 2.0 0.00 0.00 0.00 55 1017.3
20260502233047 49 0 0.0 4.0 0.00 0.00 0.00 58 1017.4
20260502231551 50 320 1.0 3.0 0.00 0.00 0.00 55 1017.4
20260502230050 48 0 0.0 2.0 0.00 0.00 0.00 59 1017.5
20260502224549 49 342 0.0 3.0 0.00 0.00 0.00 57 1017.5
20260502223046 50 85 0.0 3.0 0.00 0.00 0.00 57 1017.6
20260502221549 51 83 1.0 6.0 0.00 0.00 0.00 57 1017.6
20260502220047 51 236 2.0 6.0 0.00 0.00 0.00 58 1017.6
20260502214553 52 86 1.0 6.0 0.00 0.00 0.00 57 1017.5